[[{"header":{"parameterUnit":"m.s-1","parameterCategory":1,"la1":30.2991,"la2":30.254,"lo1":-89.0895,"lo2":-89.0444,"dy":0.0017,"dx":0.0017,"nx":28,"ny":28,"refTime":"2025-12-01T09:00:00:Z","depth":0,"parameterNumber":2,"parameterNumberName":"U-component_of_WINDS"},"data":[0,0,0,0,0,0,0,0,0,0,0,0,0,0,0,0,0,0,0,0,0,0,0,0,0,0,0,0,0,0,0,0,0,0,0,0,0,0,0,0,0,0,0,0,0,0,0,0,0,0,0,0,0,0,0,0,0,0,-4.1209,-4.121,0,-4.1305,-4.1306,-4.1307,-4.1231,-4.1228,-4.1225,-4.1222,-4.1321,-4.1327,-4.1333,0,0,0,0,0,0,0,0,0,0,0,0,0,-4.096,-4.0965,-4.1209,-4.121,-4.1211,-4.1305,-4.1306,-4.1308,-4.1232,-4.1228,-4.1224,-4.122,-4.132,-4.1326,-4.1333,0,0,0,0,0,0,0,0,0,0,0,0,0,-4.1063,-4.0966,-4.1209,-4.1185,-4.1184,-4.1305,-4.1306,-4.1308,-4.1233,-4.1228,-4.1223,-4.1218,-4.1317,-4.1326,-4.1334,-4.1484,0,0,-4.136,-4.1364,0,0,0,0,0,0,0,0,-4.1057,-4.1072,-4.1187,-4.1187,-4.1186,-4.1251,-4.1255,-4.1367,-4.1234,-4.1214,-4.1222,-4.1216,-4.1302,-4.1312,-4.134,-4.1489,-4.1493,-4.1361,-4.1366,-4.137,-4.1372,0,0,0,0,0,0,0,-4.105,-4.1068,-4.1247,-4.1189,-4.1188,-4.1169,-4.1179,-4.1276,-4.1284,-4.1215,-4.121,-4.1223,-4.1301,-4.1332,-4.1342,-4.1495,-4.1361,-4.1368,-4.1373,-4.1377,-4.1768,-4.1773,0,0,0,0,0,0,-4.1046,-4.1062,-4.1244,-4.125,-4.1108,-4.1178,-4.1188,-4.1235,-4.1283,-4.1286,-4.1227,-4.1219,-4.132,-4.1332,-4.1345,-4.1521,-4.137,-4.1378,-4.1383,-4.1763,-4.1769,-4.1775,0,0,0,0,0,0,-4.104,-4.1062,-4.124,-4.1155,-4.1176,-4.1187,-4.1241,-4.124,-4.1271,-4.1291,-4.1293,-4.1257,-4.1317,-4.1333,-4.1449,-4.1524,-4.1381,-4.1389,-4.1757,-4.1765,-4.1772,-4.1877,0,0,0,0,0,0,-4.1034,-4.1061,-4.1118,-4.1157,-4.1181,-4.1343,-4.1245,-4.1245,-4.1286,-4.1276,-4.132,-4.1323,-4.1314,-4.1437,-4.1458,-4.1533,-4.1396,-4.175,-4.176,-4.177,-4.1867,-4.1887,-4.1905,0,0,0,0,0,-4.1025,-4.1145,-4.1122,-4.1144,-4.1253,-4.1347,-4.1361,-4.1348,-4.1292,-4.1349,-4.1362,-4.1322,-4.1513,-4.145,-4.1473,-4.1551,-4.1745,-4.1758,-4.1769,-4.1858,-4.1883,-4.1905,0,0,0,0,0,0,-4.1116,-4.1149,-4.1124,-4.126,-4.1301,-4.1334,-4.1406,-4.1376,-4.1434,-4.1423,-4.1405,-4.1415,-4.1537,-4.1556,-4.1485,-4.1698,-4.162,-4.1637,-4.168,-4.1704,-4.1723,-4.1714,-4.1403,0,0,0,0,0,-4.1151,-4.1225,-4.1251,-4.1368,-4.139,-4.1395,-4.1436,-4.1422,-4.1464,-4.1482,-4.1503,-4.1546,-4.1615,-4.1661,-4.1727,-4.187,-4.1877,-4.1936,-4.1955,-4.197,-4.1984,-4.2059,-4.2084,-4.1814,-4.1814,-4.1814,0,0,-4.1226,-4.1253,-4.1301,-4.1387,-4.1418,-4.1494,-4.141,-4.1495,-4.1551,-4.1495,-4.1604,-4.1622,-4.1669,-4.1798,-4.1856,-4.1818,-4.2061,-4.1986,-4.1998,-4.2003,-4.2074,-4.2099,-4.2122,-4.1822,-4.1821,-4.182,0,0,-4.14,-4.143,-4.1529,-4.1561,-4.1607,-4.161,-4.1634,-4.1672,-4.168,-4.1791,-4.1749,-4.1816,-4.1937,-4.197,-4.2004,-4.219,-4.2154,-4.2212,-4.2311,-4.2384,-4.2405,-4.2424,-4.2487,-4.251,-4.2227,-4.2227,-4.2227,0,-4.1486,-4.1599,-4.1584,-4.1671,-4.1709,-4.1661,-4.1761,-4.1793,-4.1859,-4.1886,-4.1843,-4.1992,-4.202,-4.2155,-4.2201,-4.223,-4.2256,-4.2205,-4.2403,-4.2422,-4.2439,-4.2499,-4.2523,-4.2233,-4.2233,-4.2232,-4.2231,0,-4.1702,-4.1781,-4.1856,-4.1919,-4.1967,-4.206,-4.2058,-4.2108,-4.209,-4.2097,-4.2209,-4.2241,-4.231,-4.2342,-4.2327,-4.2475,-4.245,-4.2406,-4.2326,-4.2471,-4.2527,-4.255,-4.2243,-4.224,-4.2239,-4.2237,0,0,-4.1934,-4.1987,-4.2015,-4.2042,-4.209,-4.2151,-4.2242,-4.2309,-4.235,-4.2399,-4.2473,-4.2576,-4.2534,-4.2572,-4.256,-4.2624,-4.2766,-4.2572,-4.2572,-4.2604,-4.2928,-4.2958,-4.2985,-4.2744,-4.2748,-4.2752,-4.2923,0,-4.2107,-4.2264,-4.2253,-4.2401,-4.2472,-4.2428,-4.2507,-4.2545,-4.2554,-4.2615,-4.2626,-4.2697,-4.2639,-4.2661,-4.2723,-4.2736,-4.283,-4.2724,-4.2811,-4.2814,-4.2797,-4.3015,-4.3048,-4.3208,-4.2945,-4.2949,-4.2952,0,-4.233,-4.2383,-4.2538,-4.2573,-4.2603,-4.2674,-4.2734,-4.2795,-4.2836,-4.2838,-4.288,-4.2857,-4.2947,-4.2869,-4.2993,-4.292,-4.2956,-4.2967,-4.2973,-4.2978,-4.2889,-4.3022,-4.3259,-4.3281,-4.2987,-4.2984,-4.2981,0,-4.2479,-4.2591,-4.2697,-4.2722,-4.2767,-4.2817,-4.2838,-4.2875,-4.2916,-4.2969,-4.2994,-4.3058,-4.3092,-4.3141,-4.3135,-4.3079,-4.3261,-4.3182,-4.3263,-4.3263,-4.33,-4.3297,-4.3542,-4.3329,-4.3329,-4.3329,-4.3328,0,-4.2672,-4.2767,-4.2764,-4.2829,-4.2934,-4.2921,-4.3025,-4.3041,-4.3074,-4.314,-4.3108,-4.3171,-4.3161,-4.3224,-4.3221,-4.3322,-4.3339,-4.3342,-4.3339,-4.3343,-4.3342,-4.3363,-4.335,-4.3335,-4.3334,-4.3332,-4.3331,0,-4.2855,-4.2857,-4.2969,-4.3002,-4.3012,-4.3088,-4.3116,-4.3177,-4.3184,-4.3268,-4.3287,-4.3297,-4.337,-4.337,-4.3454,-4.3451,-4.3574,-4.3561,-4.3559,-4.3555,-4.3634,-4.3625,-4.3898,-4.3932,-4.3701,-4.3703,-4.3705,0,-4.2975,-4.3048,-4.3088,-4.313,-4.3154,-4.3222,-4.3263,-4.3253,-4.3297,-4.3349,-4.3403,-4.3473,-4.3527,-4.3646,-4.366,-4.3723,-4.3709,-4.38,-4.3718,-4.3718,-4.3706,-4.37,-4.3705,-4.3815,-4.3818,-4.382,-4.3821,0,-4.3189,-4.3186,-4.3245,-4.3306,-4.3355,-4.3403,-4.3446,-4.3482,-4.3477,-4.3528,-4.3601,-4.3643,-4.3728,-4.3796,-4.3857,-4.3878,-4.3849,-4.3848,-4.3869,-4.3871,-4.3866,-4.3866,-4.3599,-4.3841,-4.3839,-4.3837,-4.3836,-4.3835,-4.3341,-4.3402,-4.344,-4.3507,-4.3539,-4.358,-4.3638,-4.3651,-4.3712,-4.3779,-4.377,-4.3851,-4.3889,-4.3968,-4.3995,-4.4058,-4.4025,-4.4057,-4.4065,-4.4072,-4.4078,-4.3859,-4.4069,-4.4069,-4.4068,-4.4068,-4.4067,0,-4.3549,-4.3571,-4.3634,-4.3694,-4.3747,-4.3715,-4.3761,-4.3807,-4.3879,-4.3918,-4.3972,-4.4055,-4.4121,-4.4141,-4.4205,-4.4251,-4.4239,-4.4268,-4.4262,-4.4267,-4.4105,-4.4079,-4.4276,-4.4276,-4.4276,-4.4276,-4.4276,-4.4276,-4.3663,-4.3764,-4.3765,-4.3881,-4.3902,-4.398,-4.4009,-4.4046,-4.4076,-4.417,-4.4225,-4.4237,-4.4268,-4.4333,-4.4392,-4.4396,-4.442,-4.4454,-4.4452,-4.43,-4.4279,-4.4259,-4.4233,-4.446,-4.446,-4.4607,-4.4609,-4.461]},{"header":{"parameterUnit":"m.s-1","parameterCategory":1,"la1":30.2991,"la2":30.254,"lo1":-89.0895,"lo2":-89.0444,"dy":0.0017,"dx":0.0017,"nx":28,"ny":28,"refTime":"2025-12-01T09:00:00:Z","depth":0,"parameterNumber":3,"parameterNumberName":"V-component_of_WINDS"},"data":[0,0,0,0,0,0,0,0,0,0,0,0,0,0,0,0,0,0,0,0,0,0,0,0,0,0,0,0,0,0,0,0,0,0,0,0,0,0,0,0,0,0,0,0,0,0,0,0,0,0,0,0,0,0,0,0,0,0,0.575,0.5753,0,0.6002,0.6005,0.6008,0.6061,0.6059,0.6057,0.6055,0.6321,0.633,0.6338,0,0,0,0,0,0,0,0,0,0,0,0,0,0.5327,0.5335,0.575,0.5753,0.5756,0.6002,0.6005,0.6008,0.6061,0.6059,0.6056,0.6054,0.6318,0.6329,0.6339,0,0,0,0,0,0,0,0,0,0,0,0,0,0.5538,0.5337,0.575,0.5812,0.582,0.6001,0.6005,0.6009,0.6061,0.6058,0.6056,0.6053,0.6315,0.6328,0.6341,0.648,0,0,0.6381,0.6387,0,0,0,0,0,0,0,0,0.5526,0.5554,0.58,0.5808,0.5817,0.5997,0.5954,0.6167,0.6062,0.597,0.6055,0.6052,0.6216,0.6237,0.6291,0.6492,0.6504,0.6383,0.6391,0.6396,0.64,0,0,0,0,0,0,0,0.5512,0.5543,0.585,0.5803,0.5814,0.5832,0.5858,0.5994,0.6106,0.5978,0.5982,0.6011,0.622,0.6278,0.6298,0.6508,0.6382,0.6394,0.6402,0.6407,0.6846,0.6849,0,0,0,0,0,0,0.5485,0.5531,0.5842,0.5858,0.5661,0.5841,0.5871,0.5942,0.6105,0.6127,0.6013,0.6012,0.6257,0.6282,0.6307,0.6487,0.6396,0.6409,0.6416,0.6842,0.6847,0.685,0,0,0,0,0,0,0.5475,0.5512,0.5832,0.5696,0.5738,0.5852,0.5931,0.5949,0.6006,0.6131,0.6153,0.6051,0.6256,0.6289,0.6438,0.6497,0.6415,0.6427,0.6838,0.6843,0.6849,0.6844,0,0,0,0,0,0,0.5463,0.5508,0.5559,0.5696,0.5745,0.5954,0.5934,0.5956,0.6028,0.603,0.6172,0.6193,0.6256,0.6418,0.6451,0.6514,0.6437,0.6833,0.684,0.6847,0.6839,0.6848,0.6856,0,0,0,0,0,0.5448,0.5547,0.5561,0.5598,0.581,0.5957,0.5986,0.6053,0.6032,0.6087,0.6169,0.6189,0.6484,0.6433,0.6471,0.6538,0.683,0.6838,0.6846,0.6836,0.6847,0.6856,0,0,0,0,0,0,0.5415,0.5566,0.5583,0.5729,0.583,0.5966,0.6036,0.6062,0.6172,0.617,0.6251,0.6284,0.643,0.6499,0.6438,0.6686,0.6657,0.6673,0.6636,0.6647,0.6656,0.6638,0.6448,0,0,0,0,0,0.5424,0.5528,0.5656,0.5773,0.5823,0.5921,0.5988,0.6031,0.614,0.6184,0.6276,0.6384,0.6502,0.6578,0.6693,0.6849,0.6885,0.6915,0.6923,0.693,0.6944,0.704,0.7057,0.6878,0.6878,0.6877,0,0,0.5445,0.5541,0.5602,0.5769,0.5852,0.5963,0.5956,0.6072,0.6157,0.6202,0.635,0.6422,0.6549,0.6704,0.6777,0.6766,0.7002,0.694,0.6944,0.6956,0.705,0.7067,0.7082,0.6883,0.6882,0.6881,0,0,0.5542,0.5621,0.5731,0.5815,0.5942,0.6007,0.6034,0.6168,0.6217,0.6366,0.6405,0.6509,0.6708,0.6799,0.6871,0.7009,0.7034,0.7044,0.709,0.7182,0.7196,0.721,0.7265,0.7283,0.7057,0.7057,0.7057,0,0.5553,0.5717,0.5785,0.5901,0.5977,0.6022,0.6138,0.6217,0.6375,0.6429,0.6413,0.667,0.6757,0.6938,0.6972,0.7027,0.7066,0.7029,0.7188,0.7202,0.7215,0.727,0.729,0.7058,0.7058,0.7058,0.7058,0,0.5729,0.5843,0.5917,0.6069,0.6153,0.6267,0.6357,0.6435,0.6473,0.6542,0.6698,0.6806,0.6947,0.6992,0.703,0.7182,0.7172,0.7171,0.7144,0.7232,0.7285,0.7306,0.7059,0.7059,0.7058,0.7058,0,0,0.5809,0.6,0.6026,0.6099,0.6244,0.6336,0.6457,0.6593,0.6662,0.677,0.6878,0.7049,0.7051,0.7133,0.7183,0.7263,0.7374,0.7254,0.7259,0.7278,0.7557,0.756,0.7582,0.7391,0.7395,0.7398,0.7548,0,0.5927,0.614,0.6207,0.6387,0.6498,0.6546,0.6652,0.6756,0.6825,0.6933,0.7011,0.7133,0.7123,0.7175,0.7256,0.7343,0.7432,0.7333,0.7498,0.7503,0.7469,0.7608,0.761,0.7746,0.7569,0.7572,0.7575,0,0.6092,0.6204,0.6395,0.6533,0.6582,0.6676,0.6811,0.6911,0.7032,0.7078,0.7172,0.7216,0.7351,0.7314,0.7504,0.7435,0.7507,0.7561,0.7568,0.759,0.7547,0.7639,0.779,0.7813,0.7606,0.7604,0.7602,0,0.6139,0.6338,0.648,0.654,0.6702,0.6769,0.684,0.6958,0.7039,0.7157,0.7212,0.7345,0.7419,0.7524,0.7606,0.757,0.7792,0.776,0.7839,0.7837,0.7886,0.7882,0.8056,0.7924,0.7923,0.7923,0.7923,0,0.6266,0.6383,0.6504,0.6592,0.6727,0.6805,0.6938,0.7013,0.7119,0.7227,0.7276,0.7377,0.7476,0.7592,0.7657,0.7809,0.784,0.7886,0.7903,0.7884,0.7879,0.7935,0.793,0.7929,0.7927,0.7926,0.7925,0,0.6342,0.6427,0.6586,0.6728,0.6767,0.6861,0.6985,0.7076,0.7148,0.7284,0.7321,0.7436,0.7576,0.7667,0.7844,0.7889,0.8057,0.8068,0.8016,0.8025,0.8101,0.8095,0.8321,0.8358,0.8195,0.8196,0.8197,0,0.6419,0.6511,0.6663,0.6738,0.681,0.6929,0.7012,0.7095,0.718,0.733,0.7404,0.7546,0.7665,0.7887,0.799,0.8129,0.8148,0.8218,0.8169,0.815,0.8157,0.8152,0.8166,0.8227,0.8228,0.8229,0.823,0,0.655,0.6589,0.6704,0.6838,0.6935,0.7044,0.7154,0.7213,0.7317,0.7411,0.7554,0.7646,0.783,0.7974,0.8123,0.8202,0.8237,0.8244,0.8271,0.8256,0.8224,0.8249,0.8043,0.8239,0.8238,0.8238,0.8237,0.8237,0.6633,0.672,0.6842,0.6972,0.7063,0.7166,0.726,0.7345,0.7465,0.762,0.7662,0.7814,0.7941,0.8145,0.8227,0.8351,0.8343,0.838,0.8391,0.84,0.8405,0.82,0.8378,0.8378,0.8377,0.8377,0.8377,0,0.6772,0.6854,0.6972,0.7125,0.7229,0.7249,0.7373,0.7461,0.7592,0.7706,0.7823,0.7992,0.8133,0.8248,0.8396,0.8473,0.8494,0.851,0.8508,0.8527,0.8399,0.8364,0.8492,0.8492,0.8492,0.8492,0.8492,0.8492,0.6856,0.7006,0.706,0.7258,0.7341,0.7488,0.7558,0.7656,0.7749,0.7934,0.8052,0.8125,0.8243,0.84,0.8533,0.8564,0.8619,0.8633,0.8668,0.8548,0.8535,0.8523,0.8491,0.8643,0.8643,0.8787,0.8789,0.879]}]]